Alderney, United Kingdom

2:09 PM GMT on March 23, 2017 (GMT +0000)
Alderney

Weather History for EGJA - October, 2012

Change the Weather History Date:

Thursday, October 18, 2012

  Actual Average Record
Temperature  
Mean Temperature 57 °F -  
Max Temperature 59 °F 54 °F 64 °F (2014)
Min Temperature 55 °F 49 °F 48 °F (2011)
Degree Days  
Heating Degree Days 8    
Growing Degree Days 7 (Base 50)    
Moisture  
Dew Point 54 °F    
Average Humidity 87    
Maximum Humidity 94    
Minimum Humidity 82    
Precipitation  
Precipitation 0.00 in - - ()
Sea Level Pressure  
Sea Level Pressure 29.58 in    
Wind  
Wind Speed 19 mph ()    
Max Wind Speed 25 mph    
Max Gust Speed 33 mph    
Visibility 6.2 miles    
Events Rain    
Averages and records for this station are not official NWS values.
T = Trace of Precipitation, MM = Missing Value Source: Averaged Metar Reports

Daily Weather History Graph

Daily Weather History Graph

Search for Another Location

Airport or City:

Trip Planner

Search our weather history database for the weather conditions in past years. The results will help you decide how hot, cold, wet, or windy it might be!

Date:

Astronomy

Oct. 18, 2012 Rise Set
Actual Time 7:35 AM BST 6:11 PM BST
Civil Twilight 7:02 AM BST 6:43 PM BST
Nautical Twilight 6:25 AM BST 7:21 PM BST
Astronomical Twilight 5:48 AM BST 7:58 PM BST
Moon 11:21 AM BST (10/18) 8:10 PM BST (10/18)
Length of Visible Light 11h 41m
Length of Day
10h 35m
Waxing Crescent, 12% of the Moon is Illuminated
Oct 18
Waxing Crescent
Oct 22
First Quarter
Oct 29
Full
Nov 7
Last Quarter
Nov 13
New

Hourly Weather History & Observations

Time (BST) Temp. Dew Point Humidity Pressure Visibility Wind Dir Wind Speed Gust Speed Precip Events Conditions
6:50 AM 55.4 °F 51.8 °F 88% 29.50 in 6.2 mi SSW 19.6 mph - N/A   Scattered Clouds
7:50 AM 55.4 °F 51.8 °F 88% 29.53 in 6.2 mi South 25.3 mph - N/A   Scattered Clouds
8:20 AM 55.4 °F 51.8 °F 88% 29.53 in 6.2 mi South 19.6 mph - N/A   Scattered Clouds
8:50 AM 57.2 °F 53.6 °F 88% 29.53 in 6.2 mi South 17.3 mph - N/A   Scattered Clouds
9:20 AM 57.2 °F 51.8 °F 82% 29.56 in 6.2 mi South 24.2 mph - N/A   Scattered Clouds
9:50 AM 57.2 °F 53.6 °F 88% 29.56 in 6.2 mi South 25.3 mph - N/A   Scattered Clouds
10:20 AM 57.2 °F 53.6 °F 88% 29.56 in 6.2 mi South 23.0 mph - N/A   Partly Cloudy
10:50 AM 57.2 °F 53.6 °F 88% 29.56 in 6.2 mi South 21.9 mph 33.4 mph N/A   Partly Cloudy
11:20 AM 57.2 °F 53.6 °F 88% 29.59 in 6.2 mi South 23.0 mph - N/A   Partly Cloudy
11:50 AM 57.2 °F 53.6 °F 88% 29.59 in 6.2 mi South 24.2 mph - N/A   Partly Cloudy
12:20 PM 57.2 °F 53.6 °F 88% 29.59 in 6.2 mi South 24.2 mph - N/A   Partly Cloudy
12:50 PM 57.2 °F 53.6 °F 88% 29.59 in 6.2 mi South 25.3 mph - N/A   Partly Cloudy
1:20 PM 57.2 °F 53.6 °F 88% 29.59 in 6.2 mi South 19.6 mph - N/A   Partly Cloudy
1:50 PM 57.2 °F 53.6 °F 88% 29.59 in 6.2 mi South 21.9 mph - N/A   Partly Cloudy
2:20 PM 59.0 °F 53.6 °F 82% 29.56 in 6.2 mi South 21.9 mph - N/A   Partly Cloudy
2:50 PM 59.0 °F 53.6 °F 82% 29.59 in 6.2 mi South 21.9 mph - N/A   Partly Cloudy
3:20 PM 59.0 °F 53.6 °F 82% 29.59 in 6.2 mi South 19.6 mph - N/A   Partly Cloudy
3:50 PM 59.0 °F 53.6 °F 82% 29.59 in 6.2 mi South 20.7 mph - N/A   Scattered Clouds
4:20 PM 59.0 °F 53.6 °F 82% 29.59 in 6.2 mi South 18.4 mph - N/A   Scattered Clouds
4:50 PM 59.0 °F 57.2 °F 94% 29.59 in 6.2 mi South 18.4 mph - N/A   Mostly Cloudy
5:20 PM 57.2 °F 55.4 °F 94% 29.62 in 6.2 mi WSW 13.8 mph - N/A Rain Light Rain Showers
5:50 PM 57.2 °F 55.4 °F 94% 29.62 in 6.2 mi SW 11.5 mph - N/A Rain Rain Showers
6:20 PM 55.4 °F 53.6 °F 94% 29.65 in 6.2 mi SW 13.8 mph - N/A   Scattered Clouds